Погода Батамай

Погода Батамай : погода сейчас, прогноз погоды и архив. Всё, что Вы хотите узнать о погоде Батамай!

Поиск расширенной информации на нашем сайте:

Другие новости

Новости СМИ2

Главная страница сайта

Новости сайта

02.10.2013

Напоминаем, что на нашем новом сайте вы можете получить высокодетализированные прогнозы погоды по пунктам России, СНГ и мира (включающие важные для авиации метеовеличины, такие как направление и скорость ветра, видимость, явления погоды, количество и форма облачности, нижняя и верхняя граница облачности), а также ознакомиться с разнообразными материалами по авиационной метеорологии и подборкой полезных ссылок на эту тему.

Сайт Метеоцентр.Азия посвящён разработке технологий оптимизации авиаметеорологического обслуживания, включая проектирование и перспективное создание нескольких автоматизированных авиаметеорологических систем:
- система выпуска высокодетальных прогностических карт явлений погоды для нижнего воздушного пространства по России и ближнему зарубежью;
- система верификации прогнозов TAF (выпускаемых синоптиками официальных АМСГ РФ и ближнего зарубежья) и AUTOTAF (выпускаемых сайтом Метеоцентр.Азия) - выявление ошибок, онлайн-сопоставление с фактической погодой METAR, автоматическое внесение коррективов в прогнозы при резком отклонении фактической погоды от прогноза, подсчёт оправдываемости прогнозов по элементам и в целом;
- система обработки, анализа и отображения авиаметеорологической информации для применения провайдерами метеорологической информации.

Рекомендуем: отделка лоджии внутри

Погода Батамай - сегодня

Время (UTC), дата Ветер
(°,м/с) 
Видим.   Явления Облачность Т
(°С)
Тd
(°С)
f(%) Тe
(°С)
Pmin
(гПа)
dP
(гПа)
Po
(мм)
O2
(г/м3)
Тmin Tmax R s Состояние
почвы
18 23.02.17 240 (ЮЗ) 20000 м    3/0 верхняя 
[Ci fib]
-33.4 -27 100 -37  1014.2  -0.4  752  347           
21 23.02.17 240 (ЮЗ) 20000 м    3/0 верхняя 
[Ci fib]
-33.6 -37.2 70 -38  1014.1  -0.1  752  348           
00 24.02.17 280 (З) 20000 м    10/0 средняя, верхняя 
[Ac trans|Cs]
-33.8 -37.5 69 -35  1014.2  0.1  752  348  -34.1      25  неравномерный
сухой снег
100% 
03 24.02.17 230 (ЮЗ) 20000 м    10/0 средняя, верхняя 
[Ac trans|Cs]
-31.4 -35.8 65 -32  1015.1  1.2  753  345           
06 24.02.17 220 (ЮЗ) 20000 м    10/0 средняя, верхняя 
[Ac trans|Cs]
-30.7 -35.1 65 -31  1016.4  1.2  754  344           
09 24.02.17 тихо ()   20000 м    10/0 средняя, верхняя 
[Ac trans|Cs]
-33.2 -37.7 64 -33  1017.7  755  348           
12 24.02.17 тихо ()   20000 м    4/0 верхняя 
[Ci fib]
-38.9 -43.2 64 -39  1018  0.1  755  357    -30.7       
15 24.02.17 тихо ()   20000 м    3/0 верхняя 
[Ci fib]
-42 -47 58 -42  1017.5  -0.5  754  361           
18 24.02.17 030 (СВ) 20000 м    3/0 верхняя 
[Ci fib]
-42.6 -47.6 58 -44  1017.4  -0.4  754  362           
21 24.02.17 010 (С) 20000 м    1/0 верхняя 
[Ci fib]
-44 -49 57 -45  1017.4  754  364           
00 25.02.17 030 (СВ) 20000 м    3/0 верхняя 
[Ci fib]
-43.1 -47.6 61 -44  1017.6  0.2  754  363  -44.1      25  неравномерный
сухой снег
100% 
03 25.02.17 170 (Ю) 20000 м    1/0 верхняя 
[Ci fib]
-36.2 -41.2 60 -37  1016.7  -0.4  754  352           
06 25.02.17 130 (ЮВ) 20000 м    ясно 
-30.1 -35.5 59 -31  1015.2  -1.1  753  343           
09 25.02.17 050 (СВ) 20000 м    3/0 верхняя 
[Ci fib]
-31.7 -35.5 69 -33  1015.3  0.1  753  345           
12 25.02.17 030 (СВ) 20000 м    ясно 
-32.7 -36.5 69 -34  1015.4  -0.2  753  347    -29.1       
15 25.02.17 030 (СВ) 20000 м    ясно 
-31.3 -35 70 -35  1014.5  -0.6  752  344           
18 25.02.17 030 (СВ) 20000 м    ясно 
-30.7 -34.4 70 -36  1013.8  -0.7  752  343           
21 25.02.17 040 (СВ) 20000 м  позёмок  ясно 
-29.7 -33.5 70 -37  1013  -0.8  751  342           
00 26.02.17 040 (СВ) 10 км  слаб. снег  10/0 верхняя 
[Cs]
-28.1 -31.9 70 -36  1012.2  -0.8  751  339  -32.7    0.0  25  неравномерный
сухой снег
100% 
03 26.02.17 040 (СВ) 10 км  слаб. снег  10/0 средняя 
[As op]
-24.4 -29.2 64 -32  1011.2  -0.8  750  334           
06 26.02.17 050 (СВ) 10 км  слаб. снег  10/0 средняя 
[As op]
-21.5 -25.5 70 -27  1010.8  -0.2  750  330           
09 26.02.17 060 (СВ) 10 км  слаб. снег  10/0 средняя 
[As op]
-21.9 -25.2 75 -25  1012.5  1.7  751  331           
12 26.02.17 040 (СВ) 20000 м  слаб. снег  10/0 средняя 
[As op]
-23.3 -26.5 75 -24  1014.3  1.6  752  333    -21.5     
15 26.02.17 020 (С) 20000 м  {снег}  3/0 верхняя 
[Ci fib]
-39 -32.1 100 -40  1015.5  753  356           
18 26.02.17 тихо ()   20000 м  слаб. снег  3/0 верхняя 
[Ci fib]
-34 -37.5 71 -34  1016.9  754  349           
Время (UTC), дата Ветер
(°,м/с) 
Видим.   Явления Облачность Т
(°С)
Тd
(°С)
f(%) Тe
(°С)
Pmin
(гПа)
dP
(гПа)
Po
(мм)
O2
(г/м3)
Тmin Tmax R s Состояние
почвы

Для получения пояснительной информации подведите курсор к названию столбца.

ПОГОДА Батамай - архив

Всё, что Вы хотите узнать о погоде Батамай - удобно и подробно!

Выберите нужную дату (начиная с 1 января 2015* года) и нажмите кнопку "Найти".
Будут отображены архивные сводки погоды по пункту Батамай, начиная с указанной даты.


Отображать данные в формате CSV (для использования в таблицах Excel)


Внимание! Наш архив погоды предназначен исключительно для личного некоммерческого использования в познавательных целях. Если Вам необходимы официальные справки о состоянии погоды (для производственных, юридических, коммерческих и т.п. целей), обращайтесь в органы Росгидромета.

*Примечание: данная дата относится к архиву по метеостанциям СССР (Россия, СНГ, Балтия).
Архив по метеостанциям Зарубежной Европы и Азии (кроме Китая) хранится 10 дней, по другим регионам земного шара (Китай, Африка, Америка, Австралия, Океания) - 1 день.

Батамай - район местоположения метеостанции


Название, широта, долгота, высота метеостанции:
Батамай 63.5°ш. 129.5°д. 79 м над ур. моря [Российская Федерация]

Дополнительная информация

В oтличие oт бoльшинства пoгoдных сайтoв мы публикуем пoдрoбную метеoинфoрмацию в детальнoм прoфессиoнальнoм фoрмате.

Характеристики температуры и влажнoсти вoздуха измеряются на высoте 2 м в тени вдали oт зданий и деревьев.
Скoрoсть ветра измеряется на высoте 10 м (на урoвне рoста челoвека скoрoсть ветра ниже в 1.5-2 раза). Если метеoстанция нахoдится в гoрoде или в лесу, тo скoрoсть ветра занижена на 2-4 м/с пo сравнению с oткрытым местoм. Скoрoсть ветра над акватoриями крупных рек и oзёр, а также на вершинах хoлмoв на 2-5 м/с выше, чем в oбычных услoвиях.
Атмoсфернoе давление в разных тoчках местнoсти мoжет значительнo oтличаться oт давления на метеoстанции, в зависимoсти oт услoвий рельефа (при пoдъёме на 10 м давление пoнижается примернo на 1 мм рт.ст.).